#�ϑ�����,���ϕ���,���ϕ���,�ő啗��,�ő啗����������,�ő�u�ԕ���,�ő�u�ԕ�����������
#(�N����),(m/s)   ,(16����),(m/s)   ,(16����)        ,(m/s)       ,(16����)            
2018/8/21 0:01,1.5,4,1.5,3,2.6,4
2018/8/21 0:02,1.5,4,1.5,3,2.2,4
2018/8/21 0:03,1.5,4,1.5,3,2.2,5
2018/8/21 0:04,1.4,4,1.5,3,1.8,3
2018/8/21 0:05,1.4,4,1.4,3,1.4,3
2018/8/21 0:06,1.3,4,1.4,3,0.8,4
2018/8/21 0:07,1.2,4,1.2,3,1.1,4
2018/8/21 0:08,1.2,4,1.2,3,2.5,4
2018/8/21 0:09,1.2,4,1.2,3,2.2,3
2018/8/21 0:10,1.2,3,1.2,3,1.6,3
2018/8/21 0:11,1.2,3,1.2,4,1.6,3
2018/8/21 0:12,1.1,3,1.1,4,1.8,3
2018/8/21 0:13,1.1,3,1.1,4,1.9,3
2018/8/21 0:14,1.1,3,1.1,4,1.5,3
2018/8/21 0:15,1.1,3,1.1,4,2,2
2018/8/21 0:16,1.2,3,1.2,4,2.1,5
2018/8/21 0:17,1.3,3,1.3,3,2.4,3
2018/8/21 0:18,1.3,3,1.3,3,2.5,3
2018/8/21 0:19,1.4,3,1.4,3,3.2,3
2018/8/21 0:20,1.4,2,1.4,3,2.7,2
2018/8/21 0:21,1.4,2,1.4,3,1.8,2
2018/8/21 0:22,1.4,3,1.4,3,2.5,3
2018/8/21 0:23,1.5,3,1.5,3,2.9,5
2018/8/21 0:24,1.5,3,1.5,3,2,3
2018/8/21 0:25,1.5,3,1.5,3,1.1,2
2018/8/21 0:26,1.5,3,1.5,3,2.2,3
2018/8/21 0:27,1.5,3,1.5,3,2.6,3
2018/8/21 0:28,1.5,3,1.5,3,2.5,4
2018/8/21 0:29,1.4,3,1.5,3,1.3,3
2018/8/21 0:30,1.3,3,1.3,3,1.9,4
2018/8/21 0:31,1.4,3,1.4,3,2.5,3
2018/8/21 0:32,1.4,3,1.4,3,2.2,4
2018/8/21 0:33,1.3,3,1.4,3,2.1,1
2018/8/21 0:34,1.3,3,1.3,3,2.4,2
2018/8/21 0:35,1.4,3,1.4,3,2.2,3
2018/8/21 0:36,1.3,3,1.4,3,1,2
2018/8/21 0:37,1.2,2,1.3,3,1.3,2
2018/8/21 0:38,1.1,2,1.2,3,1.3,1
2018/8/21 0:39,1.1,2,1.1,3,1,3
2018/8/21 0:40,1.1,2,1.1,3,1.3,1
2018/8/21 0:41,1,2,1.1,3,1.1,1
2018/8/21 0:42,0.9,1,1,3,0.8,1
2018/8/21 0:43,0.9,1,0.9,3,1.1,2
2018/8/21 0:44,0.8,1,0.9,3,2.1,3
2018/8/21 0:45,0.9,2,0.9,3,2.5,3
2018/8/21 0:46,1,2,1,3,2,3
2018/8/21 0:47,1,2,1,2,2.4,2
2018/8/21 0:48,1.1,2,1.1,2,2.2,3
2018/8/21 0:49,1.2,2,1.2,2,2,4
2018/8/21 0:50,1.2,2,1.2,2,2,2
2018/8/21 0:51,1.3,2,1.3,2,2.2,3
2018/8/21 0:52,1.4,2,1.4,2,2.4,2
2018/8/21 0:53,1.5,3,1.5,2,3.6,5
2018/8/21 0:54,1.5,3,1.5,2,1.3,7
2018/8/21 0:55,1.4,3,1.5,2,1.5,16
2018/8/21 0:56,1.3,3,1.3,2,2.1,2
2018/8/21 0:57,1.3,2,1.3,2,2.1,1
2018/8/21 0:58,1.2,2,1.3,2,1.8,1
2018/8/21 0:59,1.2,2,1.2,2,1.5,1
2018/8/21 1:00,1.2,2,1.2,2,1.5,1
2018/8/21 1:01,1.2,2,1.2,2,3.3,2
2018/8/21 1:02,1.3,2,1.3,2,3,1
2018/8/21 1:03,1.2,1,1.3,3,2.5,1
2018/8/21 1:04,1.3,1,1.3,3,2.4,2
2018/8/21 1:05,1.3,2,1.3,3,1.8,3
2018/8/21 1:06,1.3,2,1.3,3,2.5,2
2018/8/21 1:07,1.4,2,1.4,2,2.4,1
2018/8/21 1:08,1.4,2,1.4,2,3,2
2018/8/21 1:09,1.5,2,1.5,2,3.1,1
2018/8/21 1:10,1.6,2,1.6,2,2.7,1
2018/8/21 1:11,1.6,2,1.6,2,3.1,2
2018/8/21 1:12,1.6,2,1.6,2,3.3,16
2018/8/21 1:13,1.7,2,1.7,2,3.5,3
2018/8/21 1:14,1.9,2,1.9,2,4.4,2
2018/8/21 1:15,1.9,2,1.9,2,3.2,3
2018/8/21 1:16,2,2,2,2,3.2,3
2018/8/21 1:17,2,2,2,2,2.4,16
2018/8/21 1:18,2,2,2,2,3.3,2
2018/8/21 1:19,2,2,2.1,2,3,2
2018/8/21 1:20,2,2,2,2,3.3,2
2018/8/21 1:21,2,2,2.1,2,2.7,3
2018/8/21 1:22,2.1,2,2.1,2,3.2,3
2018/8/21 1:23,2,3,2.1,2,2.4,3
2018/8/21 1:24,1.9,2,2,2,2.6,2
2018/8/21 1:25,1.8,2,1.9,2,2.4,1
2018/8/21 1:26,1.8,2,1.8,2,3.9,2
2018/8/21 1:27,1.9,2,1.9,2,3.7,1
2018/8/21 1:28,1.9,2,1.9,2,3.3,1
2018/8/21 1:29,1.8,2,1.9,2,2.6,1
2018/8/21 1:30,1.8,2,1.8,2,2,2
2018/8/21 1:31,1.7,2,1.8,2,2.5,2
2018/8/21 1:32,1.7,2,1.7,2,2,1
2018/8/21 1:33,1.6,2,1.7,2,2.5,1
2018/8/21 1:34,1.6,2,1.6,2,2.1,3
2018/8/21 1:35,1.7,2,1.7,2,2,3
2018/8/21 1:36,1.6,2,1.7,2,2.5,1
2018/8/21 1:37,1.6,2,1.6,2,2.5,1
2018/8/21 1:38,1.5,2,1.6,2,3.5,3
2018/8/21 1:39,1.5,2,1.5,2,1.8,3
2018/8/21 1:40,1.5,2,1.5,2,1.8,2
2018/8/21 1:41,1.6,2,1.6,2,3.1,2
2018/8/21 1:42,1.7,2,1.7,2,3.6,1
2018/8/21 1:43,1.8,2,1.8,2,4.1,3
2018/8/21 1:44,1.8,2,1.8,2,3,2
2018/8/21 1:45,1.9,2,1.9,2,3.5,2
2018/8/21 1:46,2,2,2,2,4.3,2
2018/8/21 1:47,2,2,2,2,3.8,3
2018/8/21 1:48,2,2,2,2,2.4,1
2018/8/21 1:49,2,2,2,2,2.1,3
2018/8/21 1:50,2.1,2,2.1,2,3,3
2018/8/21 1:51,2,2,2.1,2,1.6,3
2018/8/21 1:52,1.9,2,1.9,2,2.6,3
2018/8/21 1:53,1.8,2,1.9,2,2.6,3
2018/8/21 1:54,1.9,2,1.9,2,3.8,2
2018/8/21 1:55,2,3,2,2,3.7,3
2018/8/21 1:56,2,3,2,2,3.2,4
2018/8/21 1:57,1.8,3,2,2,1.9,1
2018/8/21 1:58,1.8,3,1.8,2,1.6,1
2018/8/21 1:59,1.7,2,1.8,2,2.1,16
2018/8/21 2:00,1.7,2,1.7,2,2.7,3
2018/8/21 2:01,1.7,2,1.7,3,2.4,4
2018/8/21 2:02,1.7,2,1.7,3,2.5,2
2018/8/21 2:03,1.6,2,1.7,3,3.3,3
2018/8/21 2:04,1.5,2,1.6,3,1.6,3
2018/8/21 2:05,1.3,2,1.4,3,1.9,2
2018/8/21 2:06,1.3,2,1.3,3,2.2,3
2018/8/21 2:07,1.3,3,1.3,3,2.2,4
2018/8/21 2:08,1.4,3,1.4,2,1.9,4
2018/8/21 2:09,1.4,3,1.4,2,1.6,4
2018/8/21 2:10,1.3,3,1.4,2,1.3,5
2018/8/21 2:11,1.3,3,1.3,2,2.1,5
2018/8/21 2:12,1.4,4,1.4,2,2.6,3
2018/8/21 2:13,1.4,4,1.4,2,2.5,3
2018/8/21 2:14,1.4,4,1.4,2,2.5,4
2018/8/21 2:15,1.5,4,1.5,4,2.6,5
2018/8/21 2:16,1.5,4,1.5,4,2.7,5
2018/8/21 2:17,1.5,4,1.5,4,2.6,3
2018/8/21 2:18,1.6,4,1.6,4,2.7,4
2018/8/21 2:19,1.6,4,1.6,4,2,3
2018/8/21 2:20,1.6,4,1.6,4,1.6,3
2018/8/21 2:21,1.7,4,1.7,4,2.7,4
2018/8/21 2:22,1.6,4,1.7,4,2.7,4
2018/8/21 2:23,1.7,4,1.7,4,3.1,5
2018/8/21 2:24,1.7,4,1.7,4,2.6,4
2018/8/21 2:25,1.7,4,1.7,4,2.9,5
2018/8/21 2:26,1.8,4,1.8,4,3.1,5
2018/8/21 2:27,1.7,4,1.7,4,1.6,4
2018/8/21 2:28,1.6,4,1.7,4,1.6,4
2018/8/21 2:29,1.6,4,1.6,4,1.4,2
2018/8/21 2:30,1.6,4,1.6,4,1.3,5
2018/8/21 2:31,1.6,4,1.6,4,2,3
2018/8/21 2:32,1.6,4,1.6,4,2.1,5
2018/8/21 2:33,1.5,4,1.6,4,3.3,4
2018/8/21 2:34,1.5,4,1.5,4,3.2,4
2018/8/21 2:35,1.5,4,1.5,4,3.5,4
2018/8/21 2:36,1.6,4,1.6,4,3.8,3
2018/8/21 2:37,1.7,4,1.7,4,3.2,3
2018/8/21 2:38,1.8,3,1.8,3,3.2,3
2018/8/21 2:39,1.9,3,1.9,3,3.6,4
2018/8/21 2:40,2.1,3,2.1,3,3.7,3
2018/8/21 2:41,2.3,3,2.3,3,3.6,3
2018/8/21 2:42,2.4,3,2.4,3,4.1,3
2018/8/21 2:43,2.6,3,2.6,3,3.7,3
2018/8/21 2:44,2.6,3,2.6,3,3.2,3
2018/8/21 2:45,2.7,3,2.7,3,4.5,3
2018/8/21 2:46,2.7,3,2.7,3,4.3,3
2018/8/21 2:47,2.7,3,2.7,3,3.6,3
2018/8/21 2:48,2.7,3,2.7,3,3.6,3
2018/8/21 2:49,2.7,3,2.7,3,4.5,3
2018/8/21 2:50,2.6,3,2.7,3,4.2,3
2018/8/21 2:51,2.5,3,2.6,3,2.9,4
2018/8/21 2:52,2.6,3,2.6,3,4.5,3
2018/8/21 2:53,2.6,3,2.6,3,3.3,3
2018/8/21 2:54,2.6,3,2.7,3,3,3
2018/8/21 2:55,2.5,3,2.6,3,2.7,3
2018/8/21 2:56,2.4,3,2.5,3,3.2,3
2018/8/21 2:57,2.4,3,2.5,3,3.1,4
2018/8/21 2:58,2.5,3,2.5,3,6.1,2
2018/8/21 2:59,2.5,3,2.6,3,5.6,2
2018/8/21 3:00,2.7,3,2.7,3,4.9,3
2018/8/21 3:01,2.7,3,2.7,3,3,3
2018/8/21 3:02,2.5,3,2.7,3,2.7,3
2018/8/21 3:03,2.6,3,2.6,3,4.1,2
2018/8/21 3:04,2.6,3,2.6,3,3.8,3
2018/8/21 3:05,2.7,3,2.7,3,4.3,3
2018/8/21 3:06,2.7,3,2.7,3,5,3
2018/8/21 3:07,2.8,3,2.8,3,3.9,4
2018/8/21 3:08,2.8,3,2.9,3,3.9,3
2018/8/21 3:09,2.6,3,2.8,3,2.7,3
2018/8/21 3:10,2.6,3,2.6,3,4.9,1
2018/8/21 3:11,2.6,3,2.6,3,4.2,3
2018/8/21 3:12,2.6,2,2.6,3,3.2,2
2018/8/21 3:13,2.5,2,2.6,3,4.1,3
2018/8/21 3:14,2.5,2,2.5,3,5.1,4
2018/8/21 3:15,2.6,3,2.6,3,5.8,4
2018/8/21 3:16,2.5,2,2.5,3,3.2,3
2018/8/21 3:17,2.6,3,2.6,3,4.3,3
2018/8/21 3:18,2.5,2,2.5,3,3.6,3
2018/8/21 3:19,2.5,3,2.5,3,2.6,3
2018/8/21 3:20,2.4,3,2.5,3,1.6,3
2018/8/21 3:21,2.2,3,2.3,3,1.6,3
2018/8/21 3:22,2.1,3,2.2,2,2,3
2018/8/21 3:23,2.1,3,2.1,2,4.5,3
2018/8/21 3:24,2.1,3,2.1,2,3,5
2018/8/21 3:25,2,3,2,3,3.2,3
2018/8/21 3:26,2,3,2,3,3.1,5
2018/8/21 3:27,1.8,3,1.9,3,3.5,3
2018/8/21 3:28,1.8,3,1.8,3,3.7,2
2018/8/21 3:29,1.9,3,1.9,3,2.7,3
2018/8/21 3:30,1.9,3,1.9,3,2.7,3
2018/8/21 3:31,2,3,2,3,2.9,3
2018/8/21 3:32,2,3,2,3,2.5,3
2018/8/21 3:33,1.9,3,2.1,3,3,3
2018/8/21 3:34,2,3,2,3,3.3,4
2018/8/21 3:35,2,3,2,3,3.9,2
2018/8/21 3:36,2,3,2,3,3,4
2018/8/21 3:37,2,3,2,3,3.7,4
2018/8/21 3:38,2,3,2,3,3.5,3
2018/8/21 3:39,2.1,3,2.1,3,4.4,3
2018/8/21 3:40,2.2,3,2.2,3,4.1,3
2018/8/21 3:41,2.3,3,2.3,3,3.9,3
2018/8/21 3:42,2.4,3,2.4,3,5,4
2018/8/21 3:43,2.5,3,2.5,3,3.7,3
2018/8/21 3:44,2.5,3,2.5,3,3.2,3
2018/8/21 3:45,2.6,3,2.6,3,3.9,4
2018/8/21 3:46,2.6,3,2.6,3,3.5,4
2018/8/21 3:47,2.7,3,2.7,3,5,4
2018/8/21 3:48,2.8,3,2.8,3,6.2,2
2018/8/21 3:49,2.8,3,2.8,3,4.9,3
2018/8/21 3:50,2.8,3,2.8,3,4.2,3
2018/8/21 3:51,2.7,3,2.8,3,3.1,3
2018/8/21 3:52,2.6,3,2.7,3,3.2,3
2018/8/21 3:53,2.7,3,2.7,3,4.2,3
2018/8/21 3:54,2.7,3,2.7,3,4.1,4
2018/8/21 3:55,2.8,3,2.8,3,3.9,4
2018/8/21 3:56,2.8,3,2.8,3,3.9,3
2018/8/21 3:57,2.8,3,2.9,3,5,3
2018/8/21 3:58,2.7,3,2.8,3,3.2,2
2018/8/21 3:59,2.7,3,2.7,3,4.5,3
2018/8/21 4:00,2.7,3,2.7,3,3.8,16
2018/8/21 4:01,2.6,3,2.6,3,3.1,3
2018/8/21 4:02,2.6,3,2.6,3,3.8,3
2018/8/21 4:03,2.5,3,2.6,3,3,3
2018/8/21 4:04,2.4,3,2.5,3,2.4,3
2018/8/21 4:05,2.3,3,2.4,3,3,3
2018/8/21 4:06,2.1,3,2.3,3,1.8,2
2018/8/21 4:07,1.9,3,2.1,3,2.1,3
2018/8/21 4:08,1.8,2,2,3,2,1
2018/8/21 4:09,1.6,2,1.8,3,1.9,2
2018/8/21 4:10,1.5,2,1.6,3,2.1,16
2018/8/21 4:11,1.6,3,1.6,3,2.2,4
2018/8/21 4:12,1.6,3,1.6,3,3.2,4
2018/8/21 4:13,1.6,3,1.6,3,4.2,3
2018/8/21 4:14,1.7,3,1.7,3,3.9,3
2018/8/21 4:15,1.8,3,1.8,3,4.3,3
2018/8/21 4:16,1.9,3,1.9,3,3.2,3
2018/8/21 4:17,2,3,2,3,3.7,4
2018/8/21 4:18,2.2,3,2.2,3,3.8,3
2018/8/21 4:19,2.4,3,2.4,3,3.9,3
2018/8/21 4:20,2.5,3,2.5,3,3.5,1
2018/8/21 4:21,2.6,3,2.6,3,3.8,3
2018/8/21 4:22,2.6,3,2.6,3,4.3,3
2018/8/21 4:23,2.6,3,2.7,3,4.3,3
2018/8/21 4:24,2.6,3,2.6,3,3,2
2018/8/21 4:25,2.5,3,2.6,3,4.1,3
2018/8/21 4:26,2.5,3,2.5,3,3.5,3
2018/8/21 4:27,2.4,3,2.5,3,2,2
2018/8/21 4:28,2.3,3,2.4,3,2.7,3
2018/8/21 4:29,2.1,3,2.3,3,2.6,3
2018/8/21 4:30,2,3,2.1,3,2.7,3
2018/8/21 4:31,2.1,3,2.1,3,3.1,3
2018/8/21 4:32,2,3,2.1,3,3.6,3
2018/8/21 4:33,2.1,3,2.1,3,5.8,4
2018/8/21 4:34,2.2,3,2.2,3,4.1,4
2018/8/21 4:35,2.2,3,2.2,3,4.7,3
2018/8/21 4:36,2.3,3,2.3,3,4.2,3
2018/8/21 4:37,2.3,3,2.3,3,2.7,3
2018/8/21 4:38,2.2,3,2.3,3,2.7,3
2018/8/21 4:39,2.4,3,2.4,3,4.3,3
2018/8/21 4:40,2.5,3,2.5,3,3.6,3
2018/8/21 4:41,2.5,3,2.5,3,3.2,3
2018/8/21 4:42,2.5,3,2.5,3,4.3,3
2018/8/21 4:43,2.4,3,2.5,3,4.4,5
2018/8/21 4:44,2.4,3,2.5,3,4.1,4
2018/8/21 4:45,2.3,3,2.4,3,3.2,3
2018/8/21 4:46,2.4,3,2.4,3,5.1,3
2018/8/21 4:47,2.5,3,2.5,3,4.1,3
2018/8/21 4:48,2.6,3,2.6,3,3.2,3
2018/8/21 4:49,2.5,3,2.6,3,4.4,3
2018/8/21 4:50,2.6,3,2.6,3,4.1,3
2018/8/21 4:51,2.7,3,2.7,3,3.8,3
2018/8/21 4:52,2.7,3,2.7,3,3.8,3
2018/8/21 4:53,2.6,3,2.6,3,3.3,3
2018/8/21 4:54,2.4,3,2.6,3,2.7,4
2018/8/21 4:55,2.4,3,2.4,3,2.7,5
2018/8/21 4:56,2.3,3,2.4,3,4.1,4
2018/8/21 4:57,2.4,3,2.4,3,4.8,3
2018/8/21 4:58,2.5,3,2.5,3,3.7,3
2018/8/21 4:59,2.4,3,2.5,3,2.7,3
2018/8/21 5:00,2.5,3,2.5,3,3.3,2
2018/8/21 5:01,2.4,3,2.4,3,3.9,4
2018/8/21 5:02,2.4,3,2.4,3,4.1,3
2018/8/21 5:03,2.5,4,2.5,3,3.8,6
2018/8/21 5:04,2.6,4,2.6,4,3.6,4
2018/8/21 5:05,2.7,4,2.7,4,3,3
2018/8/21 5:06,2.7,4,2.7,4,3.9,3
2018/8/21 5:07,2.6,4,2.7,4,3.8,3
2018/8/21 5:08,2.5,4,2.5,4,3.3,4
2018/8/21 5:09,2.5,4,2.5,4,2.9,4
2018/8/21 5:10,2.5,4,2.5,4,3.6,3
2018/8/21 5:11,2.4,4,2.5,4,3.1,3
2018/8/21 5:12,2.3,4,2.4,4,3.1,3
2018/8/21 5:13,2.3,4,2.3,4,3.8,4
2018/8/21 5:14,2.3,3,2.3,4,3.1,4
2018/8/21 5:15,2.3,3,2.3,4,3.5,2
2018/8/21 5:16,2.2,3,2.3,4,2.6,3
2018/8/21 5:17,2.1,3,2.2,4,2.5,3
2018/8/21 5:18,2,3,2.1,4,2.1,2
2018/8/21 5:19,2,3,2,4,2.9,3
2018/8/21 5:20,1.9,3,2,4,2.2,4
2018/8/21 5:21,1.9,3,1.9,4,2.5,3
2018/8/21 5:22,1.8,3,1.9,4,2,2
2018/8/21 5:23,1.8,3,1.8,3,2.9,3
2018/8/21 5:24,1.7,3,1.8,3,2.1,2
2018/8/21 5:25,1.6,3,1.7,3,2.5,4
2018/8/21 5:26,1.6,3,1.6,3,4.2,3
2018/8/21 5:27,1.8,3,1.8,3,3.3,3
2018/8/21 5:28,1.8,3,1.8,3,3,4
2018/8/21 5:29,1.9,3,1.9,3,3.3,3
2018/8/21 5:30,1.9,3,1.9,3,3,4
2018/8/21 5:31,2.2,3,2.2,3,5.7,2
2018/8/21 5:32,2.3,3,2.3,3,3.7,4
2018/8/21 5:33,2.2,3,2.3,3,2.2,4
2018/8/21 5:34,2.3,3,2.3,3,3.7,3
2018/8/21 5:35,2.3,3,2.3,3,3.3,3
2018/8/21 5:36,2.3,3,2.4,3,3.7,3
2018/8/21 5:37,2.2,3,2.3,3,2.4,4
2018/8/21 5:38,2.2,3,2.2,3,3.7,4
2018/8/21 5:39,2.3,3,2.3,3,3.9,3
2018/8/21 5:40,2.3,3,2.3,3,3.3,3
2018/8/21 5:41,2.2,3,2.3,3,3.5,3
2018/8/21 5:42,2.2,3,2.2,3,3.7,3
2018/8/21 5:43,2.4,3,2.4,3,4.3,3
2018/8/21 5:44,2.4,3,2.4,3,3.7,4
2018/8/21 5:45,2.5,3,2.5,3,3,3
2018/8/21 5:46,2.4,3,2.4,3,3.3,3
2018/8/21 5:47,2.5,3,2.5,3,3.3,3
2018/8/21 5:48,2.4,3,2.5,3,3,3
2018/8/21 5:49,2.3,3,2.4,3,3,4
2018/8/21 5:50,2.3,3,2.3,3,3.6,3
2018/8/21 5:51,2.4,3,2.4,3,4.1,4
2018/8/21 5:52,2.3,3,2.4,3,3.9,4
2018/8/21 5:53,2.3,3,2.3,3,4.1,3
2018/8/21 5:54,2.3,3,2.3,3,4.1,3
2018/8/21 5:55,2.3,3,2.3,3,3.3,3
2018/8/21 5:56,2.4,3,2.4,3,3.9,3
2018/8/21 5:57,2.5,3,2.5,3,4.4,3
2018/8/21 5:58,2.6,3,2.6,3,4.1,3
2018/8/21 5:59,2.6,3,2.6,3,3.1,3
2018/8/21 6:00,2.5,3,2.6,3,3.1,2
2018/8/21 6:01,2.6,3,2.6,3,4.3,3
2018/8/21 6:02,2.6,3,2.6,3,4.4,3
2018/8/21 6:03,2.5,3,2.6,3,3.6,3
2018/8/21 6:04,2.5,3,2.5,3,3.8,4
2018/8/21 6:05,2.5,3,2.5,3,3.2,2
2018/8/21 6:06,2.5,3,2.5,3,3.8,3
2018/8/21 6:07,2.5,3,2.5,3,4.7,3
2018/8/21 6:08,2.5,3,2.5,3,5.6,5
2018/8/21 6:09,2.6,3,2.6,3,3.1,3
2018/8/21 6:10,2.7,3,2.7,3,5.5,3
2018/8/21 6:11,2.7,3,2.7,3,5.4,3
2018/8/21 6:12,2.8,3,2.8,3,4.8,4
2018/8/21 6:13,3,3,3,3,5.1,5
2018/8/21 6:14,3,3,3,3,4.5,3
2018/8/21 6:15,3.2,3,3.2,3,4.4,3
2018/8/21 6:16,3.2,3,3.2,3,5.1,3
2018/8/21 6:17,3.2,3,3.2,3,5.1,3
2018/8/21 6:18,3.1,3,3.2,3,4.9,4
2018/8/21 6:19,3.3,3,3.3,3,5.2,3
2018/8/21 6:20,3.3,3,3.3,3,4.1,3
2018/8/21 6:21,3.3,3,3.3,3,6,3
2018/8/21 6:22,3.3,3,3.4,3,4.8,5
2018/8/21 6:23,3.3,3,3.3,3,5.5,3
2018/8/21 6:24,3.3,3,3.4,3,4.9,4
2018/8/21 6:25,3.2,3,3.3,3,2.9,4
2018/8/21 6:26,3.2,3,3.2,3,4.5,2
2018/8/21 6:27,3.2,3,3.2,3,4.3,3
2018/8/21 6:28,3.2,4,3.2,3,4.2,5
2018/8/21 6:29,3.1,3,3.2,3,5.4,4
2018/8/21 6:30,3.1,4,3.1,3,4.2,5
2018/8/21 6:31,3,4,3.1,3,4.3,4
2018/8/21 6:32,2.9,3,3,3,3.7,3
2018/8/21 6:33,2.8,3,2.9,3,3.7,3
2018/8/21 6:34,2.6,3,2.7,3,3.6,2
2018/8/21 6:35,2.7,3,2.7,3,5.1,3
2018/8/21 6:36,2.7,3,2.8,3,4.1,3
2018/8/21 6:37,2.7,3,2.7,3,3.8,3
2018/8/21 6:38,2.5,3,2.6,4,2.9,2
2018/8/21 6:39,2.5,3,2.5,3,4.3,3
2018/8/21 6:40,2.6,3,2.6,4,5.8,3
2018/8/21 6:41,2.6,3,2.6,4,4.5,3
2018/8/21 6:42,2.5,3,2.6,3,3.3,3
2018/8/21 6:43,2.6,3,2.6,3,4.4,3
2018/8/21 6:44,2.7,3,2.7,3,3.5,3
2018/8/21 6:45,2.6,3,2.7,3,4.5,4
2018/8/21 6:46,2.6,3,2.6,3,5.1,3
2018/8/21 6:47,2.7,3,2.7,3,4.5,4
2018/8/21 6:48,2.8,3,2.8,3,2.7,4
2018/8/21 6:49,2.7,3,2.8,3,2.7,4
2018/8/21 6:50,2.4,3,2.7,3,2.1,3
2018/8/21 6:51,2.3,3,2.4,3,3,5
2018/8/21 6:52,2.2,3,2.3,3,2.6,4
2018/8/21 6:53,2.1,3,2.2,3,2,3
2018/8/21 6:54,2,3,2,3,3.3,3
2018/8/21 6:55,2,3,2.1,3,3.5,3
2018/8/21 6:56,1.9,3,2,3,3.6,3
2018/8/21 6:57,1.8,3,1.9,3,3.9,5
2018/8/21 6:58,1.8,3,1.8,3,3.2,3
2018/8/21 6:59,1.8,3,1.8,3,3.2,3
2018/8/21 7:00,2,3,2,3,4.4,4
2018/8/21 7:01,2.1,3,2.1,3,4.3,3
2018/8/21 7:02,2.1,3,2.1,3,2.9,4
2018/8/21 7:03,2.2,3,2.2,3,4.1,5
2018/8/21 7:04,2.1,3,2.2,3,2.1,3
2018/8/21 7:05,2,3,2.1,3,3.3,4
2018/8/21 7:06,2,3,2.1,3,3.6,4
2018/8/21 7:07,2.1,3,2.1,3,3.8,3
2018/8/21 7:08,2.2,3,2.3,3,4.4,3
2018/8/21 7:09,2.3,3,2.3,3,4.7,3
2018/8/21 7:10,2.4,4,2.4,3,4.3,3
2018/8/21 7:11,2.4,3,2.4,3,3.8,3
2018/8/21 7:12,2.5,3,2.5,3,4.5,2
2018/8/21 7:13,2.5,3,2.5,3,3.9,1
2018/8/21 7:14,2.7,3,2.7,3,6,4
2018/8/21 7:15,2.8,3,2.8,3,4.2,3
2018/8/21 7:16,2.9,3,2.9,3,4.2,2
2018/8/21 7:17,2.9,3,2.9,3,4.8,3
2018/8/21 7:18,2.9,3,2.9,3,4.2,3
2018/8/21 7:19,2.8,3,2.9,3,3.8,4
2018/8/21 7:20,2.7,3,2.8,3,3.5,3
2018/8/21 7:21,2.6,3,2.7,3,3,3
2018/8/21 7:22,2.5,3,2.6,3,3.1,3
2018/8/21 7:23,2.4,3,2.5,3,2.6,2
2018/8/21 7:24,2.4,3,2.4,3,3.5,2
2018/8/21 7:25,2.4,3,2.4,3,4.5,3
2018/8/21 7:26,2.4,3,2.4,3,4.5,3
2018/8/21 7:27,2.3,3,2.4,3,3.9,3
2018/8/21 7:28,2.3,3,2.3,3,3.5,4
2018/8/21 7:29,2.3,3,2.3,3,3.7,4
2018/8/21 7:30,2.4,3,2.4,3,4.1,3
2018/8/21 7:31,2.5,3,2.5,3,4.1,3
2018/8/21 7:32,2.5,3,2.5,3,4.2,3
2018/8/21 7:33,2.7,3,2.7,3,3.7,3
2018/8/21 7:34,2.6,3,2.7,3,3,4
2018/8/21 7:35,2.4,4,2.6,3,2.5,6
2018/8/21 7:36,2.3,3,2.4,3,2.2,3
2018/8/21 7:37,2.2,4,2.3,3,2.9,4
2018/8/21 7:38,2.3,4,2.3,3,4.1,5
2018/8/21 7:39,2.3,4,2.3,3,4.2,3
2018/8/21 7:40,2.2,4,2.3,3,3.3,3
2018/8/21 7:41,2.3,4,2.3,3,4.4,3
2018/8/21 7:42,2.3,4,2.3,3,3.7,3
2018/8/21 7:43,2.3,4,2.3,3,3.5,2
2018/8/21 7:44,2.3,3,2.3,3,2.6,3
2018/8/21 7:45,2.4,3,2.4,4,3.5,3
2018/8/21 7:46,2.4,3,2.4,3,3.1,3
2018/8/21 7:47,2.4,3,2.5,3,3.7,3
2018/8/21 7:48,2.4,3,2.4,3,4.4,3
2018/8/21 7:49,2.5,3,2.5,3,5,5
2018/8/21 7:50,2.5,3,2.5,3,4.4,4
2018/8/21 7:51,2.3,3,2.5,3,2.7,4
2018/8/21 7:52,2.4,4,2.4,3,4.3,6
2018/8/21 7:53,2.3,4,2.4,3,3.7,6
2018/8/21 7:54,2.4,4,2.4,3,3,2
2018/8/21 7:55,2.4,4,2.4,3,5.2,4
2018/8/21 7:56,2.5,4,2.5,3,4.3,5
2018/8/21 7:57,2.6,4,2.6,4,4.5,3
2018/8/21 7:58,2.7,4,2.7,4,4.7,4
2018/8/21 7:59,2.6,4,2.7,4,4.1,4
2018/8/21 8:00,2.6,4,2.6,4,3.2,6
2018/8/21 8:01,2.7,4,2.7,4,4.8,4
2018/8/21 8:02,2.8,4,2.8,4,6.1,4
2018/8/21 8:03,2.9,4,2.9,4,5.4,5
2018/8/21 8:04,3,4,3,4,4.9,7
2018/8/21 8:05,3,5,3,4,4.9,5
2018/8/21 8:06,3.1,5,3.1,5,5.1,4
2018/8/21 8:07,3.2,4,3.2,5,5.2,3
2018/8/21 8:08,3.1,5,3.1,5,3.7,5
2018/8/21 8:09,3.2,5,3.2,5,4.9,5
2018/8/21 8:10,3.3,5,3.4,5,4.9,5
2018/8/21 8:11,3.3,5,3.4,5,4.5,4
2018/8/21 8:12,3.1,5,3.3,5,3.6,5
2018/8/21 8:13,3.1,5,3.1,5,3.9,5
2018/8/21 8:14,3.1,5,3.1,5,3.8,5
2018/8/21 8:15,2.9,5,3.1,5,2.4,5
2018/8/21 8:16,2.8,5,2.9,5,3.2,5
2018/8/21 8:17,2.6,5,2.8,5,2.5,5
2018/8/21 8:18,2.7,5,2.7,5,5.5,5
2018/8/21 8:19,2.7,5,2.7,5,5.7,6
2018/8/21 8:20,2.5,5,2.6,5,3.3,6
2018/8/21 8:21,2.5,5,2.5,5,4.1,6
2018/8/21 8:22,2.5,5,2.5,5,3,6
2018/8/21 8:23,2.3,6,2.4,5,2.7,6
2018/8/21 8:24,2.3,6,2.4,5,3.1,6
2018/8/21 8:25,2.3,6,2.3,5,2.2,3
2018/8/21 8:26,2.2,5,2.3,5,2.2,6
2018/8/21 8:27,2.3,5,2.3,5,3.6,4
2018/8/21 8:28,2.1,5,2.3,5,3.1,5
2018/8/21 8:29,2,5,2.1,5,3.2,5
2018/8/21 8:30,2,5,2,5,3,3
2018/8/21 8:31,1.9,5,2,5,2.7,7
2018/8/21 8:32,1.9,5,1.9,5,2.7,5
2018/8/21 8:33,1.9,5,2,6,3,3
2018/8/21 8:34,2,5,2,6,3.2,5
2018/8/21 8:35,1.9,5,2,5,2.2,4
2018/8/21 8:36,1.9,5,1.9,5,2.2,3
2018/8/21 8:37,1.9,5,1.9,5,2.5,5
2018/8/21 8:38,1.8,5,1.8,5,2.1,7
2018/8/21 8:39,1.7,5,1.7,5,3.8,7
2018/8/21 8:40,1.7,5,1.7,5,3,7
2018/8/21 8:41,1.8,5,1.8,5,5.6,5
2018/8/21 8:42,2,5,2,5,6.1,6
2018/8/21 8:43,2.2,5,2.2,5,5.5,4
2018/8/21 8:44,2.3,5,2.3,5,5.6,5
2018/8/21 8:45,2.5,5,2.5,5,5.2,5
2018/8/21 8:46,2.7,6,2.7,6,5.1,5
2018/8/21 8:47,2.9,6,2.9,6,6.2,6
2018/8/21 8:48,3,6,3,6,4.1,5
2018/8/21 8:49,3.2,6,3.2,6,5.7,6
2018/8/21 8:50,3.4,6,3.4,6,5.4,5
2018/8/21 8:51,3.5,6,3.5,6,5.4,6
2018/8/21 8:52,3.5,6,3.5,6,7.5,6
2018/8/21 8:53,3.6,6,3.6,6,5.5,6
2018/8/21 8:54,3.7,6,3.7,6,6.5,6
2018/8/21 8:55,3.9,6,3.9,6,7.2,6
2018/8/21 8:56,3.9,6,3.9,6,6.3,5
2018/8/21 8:57,3.6,6,3.9,6,5.5,4
2018/8/21 8:58,3.6,6,3.6,6,3.3,5
2018/8/21 8:59,3.5,6,3.6,6,5.1,5
2018/8/21 9:00,3.7,6,3.7,6,8.2,7
2018/8/21 9:01,3.6,6,3.7,6,7.8,8
2018/8/21 9:02,3.3,6,3.6,6,4.3,8
2018/8/21 9:03,3.2,6,3.3,6,4.8,8
2018/8/21 9:04,3.1,6,3.2,6,5.4,7
2018/8/21 9:05,2.8,7,3.1,6,5.1,9
2018/8/21 9:06,2.8,7,2.8,6,5.8,8
2018/8/21 9:07,2.9,7,2.9,6,5.1,7
2018/8/21 9:08,3,7,3,6,5.2,8
2018/8/21 9:09,2.9,8,3,6,5.5,8
2018/8/21 9:10,2.7,8,2.9,6,4.9,8
2018/8/21 9:11,2.7,8,2.8,6,5.2,8
2018/8/21 9:12,2.7,8,2.7,6,3.5,8
2018/8/21 9:13,2.6,7,2.7,6,3.6,7
2018/8/21 9:14,2.6,7,2.6,6,3.6,6
2018/8/21 9:15,2.6,7,2.7,7,3.9,6
2018/8/21 9:16,2.5,7,2.6,7,4.2,7
2018/8/21 9:17,2.4,7,2.5,7,2.7,8
2018/8/21 9:18,2.2,7,2.4,7,3.2,8
2018/8/21 9:19,2.2,7,2.3,8,3.7,6
2018/8/21 9:20,2,7,2.2,8,3.5,9
2018/8/21 9:21,2,7,2,8,3.3,9
2018/8/21 9:22,2.2,7,2.2,7,5.8,6
2018/8/21 9:23,2.3,7,2.3,7,6.1,6
2018/8/21 9:24,2.3,7,2.3,7,5,8
2018/8/21 9:25,2.2,7,2.3,7,4.8,8
2018/8/21 9:26,2.2,7,2.2,7,2.9,8
2018/8/21 9:27,2.3,7,2.3,7,3.9,6
2018/8/21 9:28,2.5,7,2.5,7,4.2,6
2018/8/21 9:29,2.7,7,2.7,7,5.4,7
2018/8/21 9:30,2.8,7,2.8,7,4.2,7
2018/8/21 9:31,2.9,7,2.9,7,5.1,8
2018/8/21 9:32,2.8,7,2.9,7,4.9,8
2018/8/21 9:33,2.7,7,2.8,7,4.7,8
2018/8/21 9:34,2.6,7,2.7,7,3.8,8
2018/8/21 9:35,2.5,7,2.6,7,6,6
2018/8/21 9:36,2.7,7,2.7,7,5.1,6
2018/8/21 9:37,2.7,7,2.8,7,4.5,7
2018/8/21 9:38,2.7,7,2.8,7,5.4,7
2018/8/21 9:39,2.7,7,2.8,7,5.2,4
2018/8/21 9:40,2.7,7,2.7,7,5.4,6
2018/8/21 9:41,2.7,6,2.7,7,5.1,5
2018/8/21 9:42,2.9,6,2.9,6,6.5,6
2018/8/21 9:43,3,6,3,6,5.6,7
2018/8/21 9:44,3.1,6,3.1,6,4.8,7
2018/8/21 9:45,3.2,6,3.2,6,4.8,7
2018/8/21 9:46,3.1,7,3.2,6,5,6
2018/8/21 9:47,3.1,7,3.1,6,5,8
2018/8/21 9:48,3.1,7,3.1,6,4.8,8
2018/8/21 9:49,3,7,3.1,6,3.7,6
2018/8/21 9:50,2.9,7,3,6,4.1,6
2018/8/21 9:51,2.9,7,2.9,6,6.1,6
2018/8/21 9:52,3,7,3.1,6,7.2,6
2018/8/21 9:53,2.8,7,3,6,5.2,9
2018/8/21 9:54,2.9,7,2.9,6,4.4,5
2018/8/21 9:55,2.8,7,2.9,6,4.3,7
2018/8/21 9:56,2.7,7,2.8,7,3.9,6
2018/8/21 9:57,2.8,7,2.9,7,6.7,7
2018/8/21 9:58,2.9,6,2.9,7,5.1,5
2018/8/21 9:59,3.1,6,3.1,7,5.1,6
2018/8/21 10:00,3.1,7,3.1,7,4.2,9
2018/8/21 10:01,2.9,7,3.1,7,4.7,8
2018/8/21 10:02,2.7,7,2.9,6,6,7
2018/8/21 10:03,2.8,7,2.8,6,5.6,7
2018/8/21 10:04,2.8,7,2.8,6,4.8,7
2018/8/21 10:05,2.7,7,2.7,6,4.4,8
2018/8/21 10:06,2.6,7,2.7,6,3.6,8
2018/8/21 10:07,2.4,7,2.6,6,3.3,6
2018/8/21 10:08,2.3,7,2.4,6,4.1,8
2018/8/21 10:09,2.3,7,2.3,6,7,8
2018/8/21 10:10,2.3,7,2.3,7,4.8,7
2018/8/21 10:11,2.3,7,2.4,7,3.7,8
2018/8/21 10:12,2.2,7,2.4,7,2.9,8
2018/8/21 10:13,2.3,7,2.3,7,6,6
2018/8/21 10:14,2.3,7,2.3,7,4.1,6
2018/8/21 10:15,2.3,7,2.3,7,3,6
2018/8/21 10:16,2.4,7,2.4,7,6.1,6
2018/8/21 10:17,2.6,7,2.6,7,6.7,5
2018/8/21 10:18,2.8,7,2.8,7,8.1,6
2018/8/21 10:19,2.8,7,2.8,7,5.5,5
2018/8/21 10:20,3,6,3,7,5.7,6
2018/8/21 10:21,3,6,3,7,4.8,8
2018/8/21 10:22,3.1,6,3.1,6,4.7,6
2018/8/21 10:23,3,6,3.1,6,3.8,6
2018/8/21 10:24,2.9,6,3,6,5,4
2018/8/21 10:25,2.9,6,2.9,6,4.7,3
2018/8/21 10:26,2.8,6,2.9,6,4.7,7
2018/8/21 10:27,2.7,6,2.8,6,5.4,6
2018/8/21 10:28,2.5,6,2.7,6,4.1,5
2018/8/21 10:29,2.5,7,2.5,6,6.3,7
2018/8/21 10:30,2.6,7,2.6,6,6.4,7
2018/8/21 10:31,2.6,7,2.7,6,6.1,8
2018/8/21 10:32,2.7,7,2.7,6,4.9,6
2018/8/21 10:33,2.8,7,2.8,6,5.1,6
2018/8/21 10:34,3,7,3,7,5.8,8
2018/8/21 10:35,3.2,7,3.2,7,6.1,8
2018/8/21 10:36,3.3,7,3.3,7,5.5,7
2018/8/21 10:37,3.3,7,3.3,7,5.1,8
2018/8/21 10:38,3.4,7,3.4,7,4.4,7
2018/8/21 10:39,3.2,7,3.4,7,3.9,7
2018/8/21 10:40,3,7,3.1,7,4.4,6
2018/8/21 10:41,2.9,8,3,7,5,11
2018/8/21 10:42,2.8,8,2.9,7,4.4,7
2018/8/21 10:43,2.7,7,2.8,7,2.9,7
2018/8/21 10:44,2.6,7,2.7,7,5.1,6
2018/8/21 10:45,2.6,8,2.6,7,7.4,8
2018/8/21 10:46,2.6,8,2.7,7,6.4,8
2018/8/21 10:47,2.8,8,2.9,7,9.1,9
2018/8/21 10:48,2.9,8,2.9,7,6.3,8
2018/8/21 10:49,2.9,8,2.9,7,6.3,7
2018/8/21 10:50,2.8,8,2.9,7,3.5,7
2018/8/21 10:51,2.9,8,2.9,8,6.7,10
2018/8/21 10:52,2.9,8,3,8,4.9,8
2018/8/21 10:53,3.1,8,3.1,8,6.2,9
2018/8/21 10:54,3.3,8,3.3,8,8.1,8
2018/8/21 10:55,3.5,8,3.5,8,8.3,8
2018/8/21 10:56,3.5,8,3.5,8,6.3,6
2018/8/21 10:57,3.4,8,3.6,8,8.4,8
2018/8/21 10:58,3.4,8,3.5,8,3.9,6
2018/8/21 10:59,3.6,8,3.6,8,7.5,7
2018/8/21 11:00,3.9,7,3.9,7,8.3,5
2018/8/21 11:01,3.9,7,3.9,7,6,8
2018/8/21 11:02,4,7,4,7,6.2,9
2018/8/21 11:03,4.1,7,4.1,7,9.4,8
2018/8/21 11:04,4.2,7,4.2,7,7.2,7
2018/8/21 11:05,4.2,7,4.2,7,7.7,8
2018/8/21 11:06,4.2,7,4.2,7,7.4,6
2018/8/21 11:07,4.2,7,4.2,7,5.8,7
2018/8/21 11:08,4.7,7,4.7,7,10.9,7
2018/8/21 11:09,4.7,7,4.7,7,8.4,7
2018/8/21 11:10,4.7,7,4.7,7,8.9,6
2018/8/21 11:11,4.7,7,4.8,7,6.3,8
2018/8/21 11:12,4.8,7,4.8,7,6.9,8
2018/8/21 11:13,4.7,7,4.8,7,6.7,7
2018/8/21 11:14,4.6,7,4.7,7,7.9,6
2018/8/21 11:15,4.7,7,4.7,7,9.8,6
2018/8/21 11:16,4.6,7,4.7,7,5.7,8
2018/8/21 11:17,4.7,7,4.7,7,9.1,7
2018/8/21 11:18,4.4,7,4.7,7,8.3,8
2018/8/21 11:19,4.3,7,4.4,7,6.4,8
2018/8/21 11:20,4.2,8,4.3,7,5.2,7
2018/8/21 11:21,4.1,8,4.2,7,3.6,9
2018/8/21 11:22,3.9,8,4.1,7,5.2,9
2018/8/21 11:23,3.8,8,3.9,7,6.9,9
2018/8/21 11:24,3.8,8,3.8,7,6.2,7
2018/8/21 11:25,3.5,8,3.8,7,6.5,8
2018/8/21 11:26,3.6,8,3.6,7,6.9,9
2018/8/21 11:27,3.5,8,3.7,7,6.2,7
2018/8/21 11:28,3.4,8,3.5,7,4.4,7
2018/8/21 11:29,3.4,8,3.4,7,6.8,7
2018/8/21 11:30,3.3,8,3.4,8,5.1,9
2018/8/21 11:31,3.4,8,3.4,8,7,9
2018/8/21 11:32,3.6,8,3.6,8,8.7,7
2018/8/21 11:33,3.9,8,3.9,8,9.8,8
2018/8/21 11:34,4.1,8,4.1,8,8.5,8
2018/8/21 11:35,4.2,8,4.2,8,10.7,8
2018/8/21 11:36,4.1,8,4.2,8,6.8,8
2018/8/21 11:37,4.2,8,4.2,8,8.2,8
2018/8/21 11:38,4.4,8,4.4,8,8.3,9
2018/8/21 11:39,4.4,8,4.4,8,11.6,6
2018/8/21 11:40,4.9,8,4.9,8,10.3,8
2018/8/21 11:41,5.2,8,5.2,8,10.1,6
2018/8/21 11:42,5.3,8,5.4,8,9.8,7
2018/8/21 11:43,5.2,8,5.3,8,8.1,8
2018/8/21 11:44,5,8,5.2,8,6.2,7
2018/8/21 11:45,4.9,8,5,8,7.1,7
2018/8/21 11:46,5.2,8,5.2,8,10.5,8
2018/8/21 11:47,5.3,8,5.3,8,10.2,7